Location: Freiburg+im+Breisgau
(48.0359°N, 7.8195°E)
Time: 02:27:42
(UTC+01:00)

ISS - Pass Details

Date: 07 January 2018
Orbit: 402 x 407 km, 51.6° (Epoch: 18 January)

Event Time Altitude Azimuth Distance (km) Brightness Sun altitude
Exits shadow 05:56:17 32° 42° (NE) 727 -2.3 -22.8°
Drops below altitude 10° 05:58:24 10° 71° (ENE) 1,450 -0.2 -22.4°
Sets 06:00:37 0° 78° (ENE) 2,332 1.2 -22.0°
